K4FB Weather Reports


time (UTC)temp
F
wind
direction
speed
knots
gust
knots
rain 1hr
in
rain 24hr
in
rain mn
in
humidity
%
barometer
mb
20260902163514 89 13 0.9 5.2 0.00 0.00 0.00 74 1016.9
20260902163031 89 340 0.0 7.8 0.00 0.00 0.00 74 1017.0
20260902162510 89 30 1.7 7.8 0.00 0.00 0.00 72 1017.0
20260902162014 89 18 0.0 7.8 0.00 0.00 0.00 77 1017.1
20260902161531 88 59 0.0 7.8 0.00 0.00 0.00 77 1017.1
20260902161013 88 31 1.7 7.8 0.00 0.00 0.00 77 1017.1
20260902160509 88 352 0.9 8.7 0.00 0.00 0.00 75 1017.1
20260902160025 88 20 2.6 7.8 0.00 0.00 0.00 75 1017.2
20260902155512 89 348 1.7 8.7 0.00 0.00 0.00 75 1017.3
20260902155008 89 352 3.5 8.7 0.00 0.00 0.00 74 1017.3
20260902154529 90 62 0.9 6.1 0.00 0.00 0.00 78 1017.4
20260902154014 90 31 1.7 8.7 0.00 0.00 0.00 78 1017.5
20260902153515 89 10 0.9 8.7 0.00 0.00 0.00 75 1017.5
20260902153028 90 5 3.5 9.6 0.00 0.00 0.00 74 1017.5
20260902152515 90 27 1.7 9.6 0.00 0.00 0.00 76 1017.6
20260902152021 90 68 1.7 7.8 0.00 0.00 0.00 75 1017.6
20260902151524 89 31 1.7 7.8 0.00 0.00 0.00 76 1017.5
20260902151015 89 19 0.0 5.2 0.00 0.00 0.00 78 1017.5
20260902150517 89 28 1.7 5.2 0.00 0.00 0.00 77 1017.5
20260902150035 89 51 0.0 4.3 0.00 0.00 0.00 80 1017.6
20260902145513 88 82 0.0 7.8 0.00 0.00 0.00 79 1017.5
20260902145012 88 65 0.9 7.8 0.00 0.00 0.00 80 1017.6
20260902144534 87 11 0.0 7.0 0.00 0.00 0.00 81 1017.5
20260902144011 87 342 1.7 7.0 0.00 0.00 0.00 80 1017.5
20260902143513 87 32 0.0 3.5 0.00 0.00 0.00 82 1017.4
20260902143032 86 28 0.0 9.6 0.00 0.00 0.00 82 1017.5
20260902142514 86 57 1.7 9.6 0.00 0.00 0.00 84 1017.3
20260902142014 85 18 0.0 5.2 0.00 0.00 0.00 86 1017.3
20260902141536 84 352 0.0 5.2 0.00 0.00 0.00 85 1017.3
20260902141016 84 19 0.0 0.9 0.00 0.00 0.00 86 1017.5
20260902140519 84 22 0.0 4.3 0.00 0.00 0.00 87 1017.5
20260902140036 83 73 0.0 4.3 0.00 0.00 0.00 88 1017.4
20260902135516 82 360 0.0 4.3 0.00 0.00 0.00 88 1017.4
20260902135018 82 352 0.0 4.3 0.00 0.00 0.00 89 1017.5
20260902134527 82 11 0.0 0.9 0.00 0.00 0.00 90 1017.6
20260902134012 81 75 0.0 0.9 0.00 0.00 0.00 90 1017.6
20260902133518 81 32 0.0 1.7 0.00 0.00 0.00 90 1017.5
20260902133029 81 48 0.0 1.7 0.00 0.00 0.00 90 1017.5
20260902132516 81 346 0.0 0.9 0.00 0.00 0.00 91 1017.6
20260902132016 80 49 0.0 0.9 0.00 0.00 0.00 92 1017.5
20260902131542 80 340 0.0 0.9 0.00 0.00 0.00 92 1017.5
20260902131010 80 5 0.0 0.9 0.00 0.00 0.00 92 1017.4
20260902130520 80 17 0.0 2.6 0.00 0.00 0.00 92 1017.4
20260902130032 80 346 0.0 2.6 0.00 0.00 0.00 92 1017.5
20260902125517 79 328 0.0 2.6 0.00 0.00 0.00 93 1017.4
20260902125014 79 5 0.0 0.9 0.00 0.00 0.00 93 1017.4
20260902124535 79 13 0.0 0.0 0.00 0.00 0.00 93 1017.4
20260902124018 79 332 0.0 0.0 0.00 0.00 0.00 93 1017.5
20260902123513 79 5 0.0 2.6 0.00 0.00 0.00 93 1017.5
20260902123027 79 28 0.0 2.6 0.00 0.00 0.00 93 1017.4
20260902122507 78 16 0.0 3.5 0.00 0.00 0.00 94 1017.4
20260902122011 78 13 0.0 3.5 0.00 0.00 0.00 94 1017.4
20260902121506 78 9 0.0 1.7 0.00 0.00 0.00 94 1017.4
20260902121003 78 340 0.0 0.9 0.00 0.00 0.00 94 1017.4
20260902120504 78 25 0.0 1.7 0.00 0.00 0.00 94 1017.3
20260902120012 77 349 0.0 1.7 0.00 0.00 0.00 94 1017.3
20260902115503 77 318 0.0 0.9 0.00 0.00 0.00 94 1017.2
20260902115006 77 323 0.0 0.0 0.00 0.00 0.00 94 1017.2
20260902114520 77 323 0.0 0.0 0.00 0.00 0.00 94 1017.2
20260902114011 77 315 0.0 0.0 0.00 0.00 0.00 94 1017.0
20260902113506 76 315 0.0 0.0 0.00 0.00 0.00 94 1017.0
20260902113023 76 315 0.0 0.0 0.00 0.00 0.00 94 1017.0
20260902112515 76 315 0.0 0.0 0.00 0.00 0.00 94 1017.0
20260902112004 76 315 0.0 0.0 0.00 0.00 0.00 94 1016.9
20260902111518 76 315 0.0 0.0 0.00 0.00 0.00 94 1016.8
20260902111010 76 315 0.0 0.0 0.00 0.00 0.00 94 1016.8
20260902110515 76 315 0.0 0.9 0.00 0.00 0.00 94 1016.6
20260902110011 76 323 0.0 0.9 0.00 0.00 0.00 94 1016.5
20260902105509 76 337 0.0 0.0 0.00 0.00 0.00 94 1016.5
20260902105006 76 346 0.0 0.9 0.00 0.00 0.00 94 1016.5
20260902104518 76 5 0.0 0.9 0.00 0.00 0.00 93 1016.3
20260902104008 76 338 0.0 0.9 0.00 0.00 0.00 93 1016.3
20260902103510 76 5 0.0 0.9 0.00 0.00 0.00 93 1016.4
20260902103027 76 336 0.0 0.9 0.00 0.00 0.00 93 1016.4
20260902102503 76 327 0.0 0.9 0.00 0.00 0.00 93 1016.5
20260902102007 76 348 0.0 0.9 0.00 0.00 0.00 93 1016.4
20260902101526 76 329 0.0 0.9 0.00 0.00 0.00 93 1016.2
20260902101014 76 298 0.0 1.7 0.00 0.00 0.00 93 1016.2
20260902100508 76 346 0.0 1.7 0.00 0.00 0.00 93 1016.2
20260902100025 76 350 0.0 0.9 0.00 0.00 0.00 93 1016.3
20260902095519 76 348 0.0 0.9 0.00 0.00 0.00 93 1016.3
20260902095005 76 350 0.0 0.9 0.00 0.00 0.00 93 1016.3
20260902094510 76 338 0.0 0.9 0.00 0.00 0.00 93 1016.3
20260902094012 76 342 0.0 0.9 0.00 0.00 0.00 93 1016.2
20260902093509 76 26 0.0 0.9 0.00 0.00 0.00 93 1016.2
20260902093015 76 347 0.0 1.7 0.00 0.00 0.00 93 1016.2
20260902092512 76 348 0.0 1.7 0.00 0.00 0.00 93 1016.3
20260902092008 76 324 0.0 0.0 0.00 0.00 0.00 93 1016.2
20260902091523 76 323 0.0 0.9 0.00 0.00 0.00 93 1016.1
20260902091007 76 338 0.0 0.9 0.00 0.00 0.00 93 1016.0
20260902090515 76 338 0.0 0.0 0.00 0.00 0.00 93 1016.0
20260902090030 76 324 0.0 0.0 0.00 0.00 0.00 93 1015.9
20260902085506 76 325 0.0 0.0 0.00 0.00 0.00 93 1016.0
20260902085012 76 325 0.0 0.0 0.00 0.00 0.00 93 1015.9
20260902084535 76 325 0.0 0.0 0.00 0.00 0.00 93 1015.9
20260902084018 76 325 0.0 0.0 0.00 0.00 0.00 92 1015.8
20260902083505 76 325 0.0 0.0 0.00 0.00 0.00 92 1015.9
20260902083021 76 325 0.0 0.0 0.00 0.00 0.00 92 1016.0
20260902082506 76 325 0.0 0.0 0.00 0.00 0.00 93 1016.0
20260902082004 76 325 0.0 0.0 0.00 0.00 0.00 92 1015.9
20260902081532 76 325 0.0 0.0 0.00 0.00 0.00 92 1015.8
20260902081010 76 325 0.0 0.9 0.00 0.00 0.00 93 1015.8
20260902080512 76 325 0.0 0.9 0.00 0.00 0.00 93 1015.8
20260902080021 76 325 0.0 0.0 0.00 0.00 0.00 93 1015.9
20260902075512 76 325 0.0 0.0 0.00 0.00 0.00 93 1015.9
20260902075016 76 323 0.0 0.0 0.00 0.00 0.00 93 1015.9
20260902074522 76 324 0.0 0.9 0.00 0.00 0.00 93 1016.0
20260902074012 76 324 0.0 0.9 0.00 0.00 0.00 93 1015.9
20260902073517 76 360 0.0 0.0 0.00 0.00 0.00 92 1016.0
20260902073032 76 360 0.0 0.0 0.00 0.00 0.00 92 1016.1
20260902072506 76 360 0.0 0.0 0.00 0.00 0.00 92 1016.0
20260902072006 76 360 0.0 0.0 0.00 0.00 0.00 92 1016.1
20260902071544 76 360 0.0 0.0 0.00 0.00 0.00 92 1016.2
20260902071012 77 360 0.0 0.0 0.00 0.00 0.00 92 1016.1
20260902070509 77 360 0.0 0.0 0.00 0.00 0.00 92 1016.2
20260902070028 77 360 0.0 0.0 0.00 0.00 0.00 92 1016.2
20260902065516 77 360 0.0 0.0 0.00 0.00 0.00 92 1016.2
20260902065008 77 360 0.0 0.0 0.00 0.00 0.00 92 1016.1
20260902064531 77 360 0.0 0.0 0.00 0.00 0.00 92 1016.1
20260902064018 77 211 0.0 0.0 0.00 0.00 0.00 92 1016.2
20260902063514 77 211 0.0 0.0 0.00 0.00 0.00 92 1016.2
20260902063031 77 211 0.0 0.0 0.00 0.00 0.00 92 1016.3
20260902062515 77 211 0.0 0.0 0.00 0.00 0.00 92 1016.4
20260902062017 76 211 0.0 0.0 0.00 0.00 0.00 92 1016.4
20260902061539 76 211 0.0 0.0 0.00 0.00 0.00 91 1016.4
20260902061008 77 211 0.0 0.0 0.00 0.00 0.00 91 1016.4
20260902060508 77 211 0.0 0.0 0.00 0.00 0.00 91 1016.5
20260902060031 77 211 0.0 0.0 0.00 0.00 0.00 91 1016.6
20260902055511 77 211 0.0 0.0 0.00 0.00 0.00 91 1016.6
20260902055011 77 211 0.0 0.0 0.00 0.00 0.00 92 1016.6
20260902054535 77 212 0.0 0.0 0.00 0.00 0.00 91 1016.5
20260902054010 77 212 0.0 0.0 0.00 0.00 0.00 91 1016.6
20260902053514 77 212 0.0 0.0 0.00 0.00 0.00 91 1016.7
20260902053011 77 212 0.0 0.0 0.00 0.00 0.00 91 1016.6
20260902052505 77 212 0.0 0.0 0.00 0.00 0.00 91 1016.7
20260902052003 77 212 0.0 0.0 0.00 0.00 0.00 90 1016.6
20260902051512 77 212 0.0 0.0 0.00 0.00 0.00 90 1016.7
20260902051004 77 212 0.0 0.0 0.00 0.00 0.00 90 1016.7
20260902050507 77 212 0.0 0.0 0.00 0.00 0.00 90 1016.8
20260902050030 77 212 0.0 0.0 0.00 0.00 0.00 90 1016.7
20260902045511 77 212 0.0 0.0 0.00 0.00 0.00 90 1016.7
20260902045007 77 212 0.0 0.0 0.00 0.00 0.00 90 1016.7
20260902044531 77 212 0.0 0.0 0.00 0.00 0.00 90 1016.8
20260902044012 78 212 0.0 0.0 0.00 0.00 0.00 90 1016.7
20260902043504 78 212 0.0 0.0 0.00 0.00 0.00 90 1016.7
20260902043022 78 212 0.0 0.0 0.00 0.00 0.00 90 1016.7
20260902042513 78 212 0.0 0.0 0.00 0.00 0.00 1016.9
20260902042020 78 212 0.0 0.0 0.00 0.00 0.00 1017.0
20260902041514 78 212 0.0 0.0 0.00 0.00 0.00 90 1017.0
20260902041006 78 212 0.0 0.0 0.00 0.00 0.00 90 1016.9
20260902040507 78 212 0.0 0.0 0.00 0.00 0.00 90 1017.1
20260902040016 78 179 0.0 0.0 0.00 0.00 0.00 90 1017.2
20260902035506 78 179 0.0 0.0 0.00 0.00 0.00 1017.2
20260902035011 78 179 0.0 0.0 0.00 0.00 0.00 1017.3
20260902034524 78 179 0.0 0.0 0.00 0.00 0.00 1017.3
20260902034007 78 179 0.0 0.0 0.00 0.00 0.00 1017.3
20260902033509 78 179 0.0 0.0 0.00 0.00 0.00 1017.3
20260902033031 78 179 0.0 0.0 0.00 0.00 0.00 1017.3
20260902032506 78 179 0.0 0.0 0.00 0.00 0.00 89 1017.4
20260902032012 78 179 0.0 0.0 0.00 0.00 0.00 89 1017.3
20260902031532 78 179 0.0 0.0 0.00 0.00 0.00 89 1017.3
20260902031017 78 179 0.0 0.0 0.00 0.00 0.00 89 1017.5
20260902030505 78 179 0.0 0.0 0.00 0.00 0.00 88 1017.6
20260902030013 79 179 0.0 0.0 0.00 0.00 0.00 88 1017.5
20260902025507 79 179 0.0 0.0 0.00 0.00 0.00 88 1017.5
20260902025008 79 179 0.0 0.0 0.00 0.00 0.00 88 1017.6
20260902024521 79 179 0.0 0.0 0.00 0.00 0.00 88 1017.6
20260902024011 79 179 0.0 0.0 0.00 0.00 0.00 88 1017.6
20260902023510 79 179 0.0 0.0 0.00 0.00 0.00 88 1017.6
20260902023019 79 179 0.0 0.0 0.00 0.00 0.00 87 1017.6
20260902022510 79 179 0.0 0.0 0.00 0.00 0.00 87 1017.5
20260902022013 79 179 0.0 0.0 0.00 0.00 0.00 87 1017.4
20260902021531 79 179 0.0 0.0 0.00 0.00 0.00 87 1017.4
20260902021007 79 179 0.0 0.0 0.00 0.00 0.00 87 1017.4
20260902020515 79 179 0.0 0.0 0.00 0.00 0.00 87 1017.2
20260902020033 79 179 0.0 0.0 0.00 0.00 0.00 87 1017.2
20260902015507 79 179 0.0 0.0 0.00 0.00 0.00 86 1017.1
20260902015007 79 179 0.0 0.0 0.00 0.00 0.00 87 1017.2
20260902014523 79 179 0.0 0.0 0.00 0.00 0.00 86 1017.1
20260902014006 79 179 0.0 0.0 0.00 0.00 0.00 86 1017.1
20260902013511 79 179 0.0 0.9 0.00 0.00 0.00 86 1017.2
20260902013031 80 179 0.0 0.9 0.00 0.00 0.00 86 1017.2
20260902012510 80 165 0.0 0.9 0.00 0.00 0.00 86 1017.1
20260902012006 80 155 0.0 0.9 0.00 0.00 0.00 86 1017.0
20260902011528 80 148 0.0 0.9 0.00 0.00 0.00 86 1017.1
20260902011013 80 200 0.0 0.9 0.00 0.00 0.00 85 1017.0
20260902010518 80 207 0.0 0.0 0.00 0.00 0.00 85 1017.1
20260902010038 80 207 0.0 0.0 0.00 0.00 0.00 85 1017.0
20260902005513 80 207 0.0 0.0 0.00 0.00 0.00 85 1017.1
20260902005016 80 207 0.0 0.0 0.00 0.00 0.00 84 1017.0
20260902004520 80 207 0.0 0.0 0.00 0.00 0.00 84 1017.0
20260902004011 81 207 0.0 0.0 0.00 0.00 0.00 84 1017.0
20260902003507 81 207 0.0 0.9 0.00 0.00 0.00 83 1016.9
20260902003028 81 206 0.0 0.9 0.00 0.00 0.00 83 1017.0
20260902002511 82 194 0.0 1.7 0.00 0.00 0.00 82 1016.9
20260902002013 82 188 0.0 3.5 0.00 0.00 0.00 82 1016.8
20260902001530 82 204 0.9 3.5 0.00 0.00 0.00 81 1016.8
20260902001011 82 189 0.0 0.9 0.00 0.00 0.00 80 1016.8
20260902000514 82 101 0.0 2.6 0.00 0.00 0.00 79 1016.7
20260902000042 83 29 0.0 3.5 0.00 0.00 0.00 79 1016.7
20260901235517 83 40 0.9 3.5 0.00 0.00 0.00 79 1016.7
20260901235010 83 17 0.0 3.5 0.00 0.00 0.00 79 1016.7
20260901234531 83 5 0.0 3.5 0.00 0.00 0.00 79 1016.7
20260901234018 83 17 0.0 0.9 0.00 0.00 0.00 79 1016.5
20260901233515 84 5 0.0 4.3 0.00 0.00 0.00 78 1016.6
20260901233026 84 19 0.9 4.3 0.00 0.00 0.00 77 1016.6
20260901232508 84 26 0.0 4.3 0.00 0.00 0.00 76 1016.5
20260901232012 84 44 0.9 4.3 0.00 0.00 0.00 75 1016.5
20260901231523 84 27 0.9 4.3 0.00 0.00 0.00 75 1016.3
20260901231011 84 40 0.9 5.2 0.00 0.00 0.00 74 1016.4
20260901230513 85 13 0.9 5.2 0.00 0.00 0.00 72 1016.4
20260901230033 85 13 0.9 5.2 0.00 0.00 0.00 72 1016.4
20260901225512 85 26 0.0 4.3 0.00 0.00 0.00 72 1016.4
20260901225013 85 19 1.7 7.0 0.00 0.00 0.00 71 1016.5
20260901224540 85 13 2.6 7.0 0.00 0.00 0.00 71 1016.5
20260901224010 85 23 0.9 5.2 0.00 0.00 0.00 72 1016.4
20260901223517 86 335 0.9 7.0 0.00 0.00 0.00 72 1016.4
20260901223045 86 16 1.7 7.0 0.00 0.00 0.00 72 1016.5
20260901222519 86 19 1.7 7.0 0.00 0.00 0.00 72 1016.5
20260901222011 87 9 0.0 5.2 0.00 0.00 0.00 72 1016.4
20260901221531 87 44 0.0 7.0 0.00 0.00 0.00 72 1016.3
20260901221011 87 87 0.9 9.6 0.00 0.00 0.00 71 1016.4
20260901220514 87 82 0.9 9.6 0.00 0.00 0.00 70 1016.4
20260901220006 87 71 3.5 7.8 0.00 0.00 0.00 70 1016.3
20260901215505 87 71 0.9 6.1 0.00 0.00 0.00 70 1016.2
20260901215002 87 17 0.0 9.6 0.00 0.00 0.00 70 1016.2
20260901214505 87 76 2.6 9.6 0.00 0.00 0.00 69 1016.1
20260901214004 88 360 1.7 9.6 0.00 0.00 0.00 69 1016.1
20260901213508 88 19 4.3 8.7 0.00 0.00 0.00 68 1016.0
20260901213012 89 43 0.9 8.7 0.00 0.00 0.00 66 1015.9
20260901212504 90 64 2.6 8.7 0.00 0.00 0.00 66 1016.1
20260901212004 90 32 2.6 8.7 0.00 0.00 0.00 65 1016.1
20260901211524 91 13 2.6 11.3 0.00 0.00 0.00 66 1016.0
20260901211010 91 78 2.6 13.9 0.00 0.00 0.00 67 1016.1
20260901210503 91 5 5.2 13.9 0.00 0.00 0.00 67 1016.1
20260901210024 91 49 4.3 11.3 0.00 0.00 0.00 67 1016.0
20260901205510 91 59 5.2 9.6 0.00 0.00 0.00 66 1016.0
20260901205006 91 344 3.5 11.3 0.00 0.00 0.00 67 1016.3
20260901204515 91 58 4.3 11.3 0.00 0.00 0.00 68 1016.1
20260901204003 90 130 1.7 11.3 0.00 0.00 0.00 71 1016.1
20260901203503 90 36 3.5 9.6 0.00 0.00 0.00 73 1015.9
20260901203006 89 32 4.3 8.7 0.00 0.00 0.00 74 1016.0
20260901202506 88 360 0.9 8.7 0.00 0.00 0.00 76 1016.0
20260901202006 87 30 0.9 8.7 0.00 0.00 0.00 75 1016.2
20260901201515 87 69 1.7 8.7 0.00 0.00 0.00 76 1016.2
20260901201003 86 57 0.9 8.7 0.00 0.00 0.00 76 1016.3
20260901200507 86 61 1.7 8.7 0.00 0.00 0.00 76 1016.3
20260901200039 87 15 0.0 7.0 0.00 0.00 0.00 76 1016.2
20260901195504 87 40 1.7 6.1 0.00 0.00 0.00 75 1016.3
20260901195003 87 34 0.9 5.2 0.00 0.00 0.00 74 1016.3
20260901194523 88 22 0.9 4.3 0.00 0.00 0.00 73 1016.3
20260901194008 88 347 2.6 7.8 0.00 0.00 0.00 72 1016.3
20260901193503 89 21 2.6 7.8 0.00 0.00 0.00 71 1016.3
20260901193008 88 342 3.5 7.8 0.00 0.00 0.00 74 1016.3
20260901192505 88 67 1.7 5.2 0.00 0.00 0.00 78 1016.4
20260901192005 87 339 0.9 5.2 0.00 0.00 0.00 77 1016.5
20260901191513 86 12 1.7 5.2 0.00 0.00 0.00 79 1016.5
20260901191010 85 5 0.9 3.5 0.00 0.00 0.00 80 1016.6
20260901190506 85 329 0.0 3.5 0.00 0.00 0.00 80 1016.6
20260901190010 84 313 0.0 4.3 0.00 0.00 0.00 80 1016.6
20260901185508 84 20 0.0 4.3 0.00 0.00 0.00 80 1016.8
20260901185011 84 347 0.9 7.0 0.00 0.00 0.00 80 1017.0
20260901184525 83 331 0.0 7.0 0.00 0.00 0.00 80 1017.1
20260901184004 83 13 3.5 7.0 0.00 0.00 0.00 79 1017.1
20260901183511 83 343 0.9 4.3 0.00 0.00 0.00 79 1017.2
20260901183022 83 360 0.0 5.2 0.00 0.00 0.00 79 1017.2
20260901182503 83 352 0.9 5.2 0.00 0.00 0.00 78 1017.3
20260901182008 83 334 0.9 7.0 0.00 0.00 0.00 78 1017.2
20260901181509 84 350 0.9 7.0 0.00 0.00 0.00 78 1017.3
20260901181004 84 23 0.0 5.2 0.00 0.00 0.00 79 1017.3
20260901180506 84 360 0.0 5.2 0.00 0.00 0.00 78 1017.4
20260901180026 84 313 0.9 7.0 0.00 0.00 0.00 77 1017.5
20260901175508 84 340 1.7 7.0 0.00 0.00 0.00 76 1017.6
20260901175004 85 304 0.9 7.8 0.00 0.00 0.00 75 1017.7
20260901174518 85 327 1.7 8.7 0.00 0.00 0.00 74 1017.7
20260901174011 85 340 1.7 9.6 0.00 0.00 0.00 75 1017.8
20260901173514 86 324 5.2 10.4 0.00 0.00 0.00 74 1017.9
20260901173016 88 13 3.5 11.3 0.00 0.00 0.00 74 1017.9
20260901172508 88 36 3.5 14.8 0.00 0.00 0.00 76 1018.0
20260901172015 87 348 7.0 14.8 0.00 0.00 0.00 73 1018.1
20260901171510 87 26 7.8 16.5 0.00 0.00 0.00 71 1018.0
20260901171009 88 347 8.7 16.5 0.00 0.00 0.00 74 1017.9
20260901170507 87 46 4.3 14.8 0.00 0.00 0.00 75 1017.9
20260901170024 88 340 8.7 14.8 0.00 0.00 0.00 72 1018.0
20260901165504 89 51 4.3 14.8 0.00 0.00 0.00 72 1017.9
20260901165010 90 5 0.9 5.2 0.00 0.00 0.00 71 1018.0
20260901164516 90 318 0.0 3.5 0.00 0.00 0.00 71 1018.0
20260901164008 90 360 0.0 3.5 0.00 0.00 0.00 74 1017.9